Time,TemperatureF,DewpointF,PressureIn,WindDirection,WindDirectionDegrees,WindSpeedMPH,WindSpeedGustMPH,Humidity,HourlyPrecipIn,Conditions,Clouds,dailyrainin,SoftwareType,DateUTC
2013-01-22 00:12:00,-21.4,-26.0,30.45,SSW,207,0.0,0.0,79,0.00,,,0.00,weatherlink.com 1.10,2013-01-22 06:12:00,
2013-01-22 00:27:00,-21.5,-26.0,30.46,SSW,207,0.0,1.0,80,0.00,,,0.00,weatherlink.com 1.10,2013-01-22 06:27:00,
2013-01-22 00:42:00,-21.7,-26.0,30.46,SSW,207,0.0,0.0,80,0.00,,,0.00,weatherlink.com 1.10,2013-01-22 06:42:00,
2013-01-22 01:12:00,-22.6,-27.0,30.46,SSW,207,0.0,0.0,79,0.00,,,0.00,weatherlink.com 1.10,2013-01-22 07:12:00,
2013-01-22 01:27:00,-23.1,-28.0,30.47,SSW,207,0.0,0.0,79,0.00,,,0.00,weatherlink.com 1.10,2013-01-22 07:27:00,
2013-01-22 01:42:00,-23.5,-28.0,30.47,SSW,207,0.0,0.0,78,0.00,,,0.00,weatherlink.com 1.10,2013-01-22 07:42:00,
2013-01-22 01:57:00,-24.1,-29.0,30.47,SSW,207,0.0,0.0,78,0.00,,,0.00,weatherlink.com 1.10,2013-01-22 07:57:00,
2013-01-22 02:12:00,-24.5,-29.0,30.47,SSW,207,0.0,0.0,78,0.00,,,0.00,weatherlink.com 1.10,2013-01-22 08:12:00,
2013-01-22 02:27:00,-24.7,-29.0,30.48,SSW,207,0.0,0.0,79,0.00,,,0.00,weatherlink.com 1.10,2013-01-22 08:27:00,
2013-01-22 02:42:00,-24.8,-29.0,30.48,SSW,207,0.0,0.0,79,0.00,,,0.00,weatherlink.com 1.10,2013-01-22 08:42:00,
2013-01-22 02:57:00,-25.0,-29.0,30.48,SSW,207,0.0,0.0,79,0.00,,,0.00,weatherlink.com 1.10,2013-01-22 08:57:00,
2013-01-22 03:13:00,-25.3,-30.0,30.48,SSW,207,0.0,0.0,78,0.00,,,0.00,weatherlink.com 1.10,2013-01-22 09:13:00,
2013-01-22 03:28:00,-25.6,-30.0,30.49,SSW,207,0.0,0.0,78,0.00,,,0.00,weatherlink.com 1.10,2013-01-22 09:28:00,
2013-01-22 03:43:00,-25.8,-30.0,30.49,SSW,207,0.0,0.0,78,0.00,,,0.00,weatherlink.com 1.10,2013-01-22 09:43:00,
2013-01-22 03:58:00,-25.9,-30.0,30.49,SSW,207,0.0,0.0,79,0.00,,,0.00,weatherlink.com 1.10,2013-01-22 09:58:00,
2013-01-22 04:28:00,-999.0,-99.9,30.49,North,-999,-999.0,-999.0,-999,0.00,,,0.00,weatherlink.com 1.10,2013-01-22 10:28:00,
2013-01-22 04:43:00,-999.0,-99.9,30.50,North,-999,-999.0,-999.0,-999,0.00,,,0.00,weatherlink.com 1.10,2013-01-22 10:43:00,
2013-01-22 04:58:00,-999.0,-99.9,30.50,North,-999,-999.0,-999.0,-999,0.00,,,0.00,weatherlink.com 1.10,2013-01-22 10:58:00,
2013-01-22 05:13:00,-26.9,-32.0,30.50,SSW,207,0.0,0.0,78,0.00,,,0.00,weatherlink.com 1.10,2013-01-22 11:13:00,
2013-01-22 05:28:00,-27.1,-32.0,30.50,SSW,207,0.0,0.0,78,0.00,,,0.00,weatherlink.com 1.10,2013-01-22 11:28:00,
2013-01-22 05:43:00,-27.1,-32.0,30.50,SSW,207,0.0,0.0,78,0.00,,,0.00,weatherlink.com 1.10,2013-01-22 11:43:00,
2013-01-22 05:58:00,-27.0,-31.0,30.50,SSW,207,0.0,0.0,79,0.00,,,0.00,weatherlink.com 1.10,2013-01-22 11:58:00,
2013-01-22 06:13:00,-27.0,-32.0,30.50,SSW,207,0.0,0.0,78,0.00,,,0.00,weatherlink.com 1.10,2013-01-22 12:13:00,
2013-01-22 06:29:00,-27.0,-32.0,30.50,SSW,207,0.0,0.0,78,0.00,,,0.00,weatherlink.com 1.10,2013-01-22 12:29:00,
2013-01-22 06:44:00,-27.3,-32.0,30.50,SSW,207,0.0,0.0,78,0.00,,,0.00,weatherlink.com 1.10,2013-01-22 12:44:00,
2013-01-22 06:59:00,-27.1,-32.0,30.50,SSW,207,0.0,0.0,78,0.00,,,0.00,weatherlink.com 1.10,2013-01-22 12:59:00,
2013-01-22 07:14:00,-27.1,-32.0,30.50,SSW,207,0.0,0.0,78,0.00,,,0.00,weatherlink.com 1.10,2013-01-22 13:14:00,
2013-01-22 07:29:00,-27.2,-32.0,30.49,SSW,207,0.0,0.0,78,0.00,,,0.00,weatherlink.com 1.10,2013-01-22 13:29:00,
2013-01-22 07:44:00,-27.4,-32.0,30.49,SSW,207,0.0,0.0,78,0.00,,,0.00,weatherlink.com 1.10,2013-01-22 13:44:00,
2013-01-22 07:59:00,-27.3,-32.0,30.50,SSW,207,0.0,0.0,78,0.00,,,0.00,weatherlink.com 1.10,2013-01-22 13:59:00,
2013-01-22 08:14:00,-999.0,-99.9,30.50,North,-999,-999.0,-999.0,-999,0.00,,,0.00,weatherlink.com 1.10,2013-01-22 14:14:00,
2013-01-22 08:29:00,-26.7,-31.0,30.51,SSW,207,0.0,0.0,79,0.00,,,0.00,weatherlink.com 1.10,2013-01-22 14:29:00,
2013-01-22 08:44:00,-26.0,-30.0,30.51,SSW,207,0.0,0.0,79,0.00,,,0.00,weatherlink.com 1.10,2013-01-22 14:44:00,
2013-01-22 08:59:00,-23.9,-28.0,30.52,SSW,207,0.0,0.0,82,0.00,,,0.00,weatherlink.com 1.10,2013-01-22 14:59:00,
2013-01-22 09:14:00,-20.8,-24.0,30.51,SSW,207,0.0,1.0,83,0.00,,,0.00,weatherlink.com 1.10,2013-01-22 15:14:00,
2013-01-22 09:29:00,-18.9,-23.0,30.50,SSW,207,0.0,1.0,82,0.00,,,0.00,weatherlink.com 1.10,2013-01-22 15:29:00,
2013-01-22 09:44:00,-18.1,-22.0,30.51,SSW,207,1.0,1.0,81,0.00,,,0.00,weatherlink.com 1.10,2013-01-22 15:44:00,
2013-01-22 10:00:00,-17.0,-21.0,30.51,SSW,207,1.0,2.0,81,0.00,,,0.00,weatherlink.com 1.10,2013-01-22 16:00:00,
2013-01-22 10:15:00,-15.6,-20.0,30.51,SSW,207,0.0,2.0,81,0.00,,,0.00,weatherlink.com 1.10,2013-01-22 16:15:00,
2013-01-22 10:30:00,-14.4,-19.0,30.51,SSE,159,2.0,4.0,78,0.00,,,0.00,weatherlink.com 1.10,2013-01-22 16:30:00,
2013-01-22 10:45:00,-13.9,-19.0,30.52,SE,144,3.0,4.0,78,0.00,,,0.00,weatherlink.com 1.10,2013-01-22 16:45:00,
2013-01-22 11:15:00,-11.0,-16.0,30.52,SSE,151,1.0,4.0,77,0.00,,,0.00,weatherlink.com 1.10,2013-01-22 17:15:00,
2013-01-22 11:30:00,-9.2,-15.0,30.51,SE,134,2.0,3.0,75,0.00,,,0.00,weatherlink.com 1.10,2013-01-22 17:30:00,
2013-01-22 11:45:00,-7.6,-14.0,30.50,SE,140,3.0,5.0,73,0.00,,,0.00,weatherlink.com 1.10,2013-01-22 17:45:00,
2013-01-22 12:03:00,-7.5,-14.0,30.50,SSE,151,1.0,3.0,73,0.00,,,0.00,weatherlink.com 1.10,2013-01-22 18:03:00,
2013-01-22 12:15:00,-6.5,-14.0,30.49,SSW,213,3.0,5.0,71,0.00,,,0.00,weatherlink.com 1.10,2013-01-22 18:15:00,
2013-01-22 12:30:00,-5.3,-13.0,30.48,NNW,342,0.0,5.0,69,0.00,,,0.00,weatherlink.com 1.10,2013-01-22 18:30:00,
2013-01-22 12:45:00,-5.0,-13.0,30.48,SE,139,1.0,3.0,69,0.00,,,0.00,weatherlink.com 1.10,2013-01-22 18:45:00,
2013-01-22 13:00:00,-4.2,-12.0,30.47,SSE,159,1.0,4.0,69,0.00,,,0.00,weatherlink.com 1.10,2013-01-22 19:00:00,
2013-01-22 13:15:00,-3.7,-12.0,30.46,SE,144,3.0,4.0,68,0.00,,,0.00,weatherlink.com 1.10,2013-01-22 19:15:00,
2013-01-22 13:31:00,-3.0,-11.0,30.46,SW,221,1.0,5.0,67,0.00,,,0.00,weatherlink.com 1.10,2013-01-22 19:31:00,
2013-01-22 13:46:00,-2.7,-12.0,30.45,SSW,200,1.0,3.0,65,0.00,,,0.00,weatherlink.com 1.10,2013-01-22 19:46:00,
2013-01-22 14:01:00,-2.4,-12.0,30.45,SSW,202,1.0,6.0,65,0.00,,,0.00,weatherlink.com 1.10,2013-01-22 20:01:00,
2013-01-22 14:31:00,-1.9,-11.0,30.45,NNE,14,2.0,3.0,66,0.00,,,0.00,weatherlink.com 1.10,2013-01-22 20:31:00,
2013-01-22 14:46:00,-0.9,-10.0,30.44,SSW,197,0.0,3.0,65,0.00,,,0.00,weatherlink.com 1.10,2013-01-22 20:46:00,
2013-01-22 15:31:00,-1.8,-10.0,30.44,SW,221,2.0,2.0,67,0.00,,,0.00,weatherlink.com 1.10,2013-01-22 21:31:00,
2013-01-22 15:46:00,-2.2,-10.0,30.44,SSW,212,0.0,2.0,68,0.00,,,0.00,weatherlink.com 1.10,2013-01-22 21:46:00,
2013-01-22 16:01:00,-3.0,-11.0,30.43,SSW,212,0.0,2.0,69,0.00,,,0.00,weatherlink.com 1.10,2013-01-22 22:01:00,
2013-01-22 16:17:00,-3.9,-11.0,30.43,SSW,212,0.0,0.0,72,0.00,,,0.00,weatherlink.com 1.10,2013-01-22 22:17:00,
2013-01-22 16:31:00,-4.7,-11.0,30.43,SSW,212,0.0,0.0,73,0.00,,,0.00,weatherlink.com 1.10,2013-01-22 22:31:00,
2013-01-22 16:47:00,-4.8,-11.0,30.43,SSW,213,0.0,3.0,75,0.00,,,0.00,weatherlink.com 1.10,2013-01-22 22:47:00,
2013-01-22 17:02:00,-4.9,-11.0,30.43,SW,216,0.0,2.0,74,0.00,,,0.00,weatherlink.com 1.10,2013-01-22 23:02:00,
2013-01-22 17:17:00,-4.4,-11.0,30.42,SW,216,0.0,2.0,73,0.00,,,0.00,weatherlink.com 1.10,2013-01-22 23:17:00,
2013-01-22 17:32:00,-4.5,-11.0,30.42,SW,216,0.0,1.0,73,0.00,,,0.00,weatherlink.com 1.10,2013-01-22 23:32:00,
2013-01-22 17:47:00,-4.9,-11.0,30.41,SW,216,0.0,0.0,74,0.00,,,0.00,weatherlink.com 1.10,2013-01-22 23:47:00,
2013-01-22 18:02:00,-5.1,-11.0,30.41,SW,216,0.0,0.0,75,0.00,,,0.00,weatherlink.com 1.10,2013-01-23 00:02:00,
2013-01-22 18:17:00,-5.2,-11.0,30.40,SW,216,0.0,0.0,76,0.00,,,0.00,weatherlink.com 1.10,2013-01-23 00:17:00,
2013-01-22 18:32:00,-5.7,-11.0,30.40,SW,216,0.0,1.0,76,0.00,,,0.00,weatherlink.com 1.10,2013-01-23 00:32:00,
2013-01-22 18:47:00,-6.3,-12.0,30.40,SW,216,0.0,0.0,76,0.00,,,0.00,weatherlink.com 1.10,2013-01-23 00:47:00,
2013-01-22 19:02:00,-7.4,-13.0,30.39,SW,216,0.0,0.0,77,0.00,,,0.00,weatherlink.com 1.10,2013-01-23 01:02:00,
2013-01-22 19:17:00,-8.5,-14.0,30.39,SW,216,0.0,0.0,78,0.00,,,0.00,weatherlink.com 1.10,2013-01-23 01:17:00,
2013-01-22 19:47:00,-9.0,-13.0,30.38,SW,216,0.0,0.0,82,0.00,,,0.00,weatherlink.com 1.10,2013-01-23 01:47:00,
2013-01-22 20:03:00,-8.5,-12.0,30.38,SW,216,0.0,0.0,83,0.00,,,0.00,weatherlink.com 1.10,2013-01-23 02:03:00,
2013-01-22 20:18:00,-7.9,-12.0,30.37,SW,216,0.0,0.0,83,0.00,,,0.00,weatherlink.com 1.10,2013-01-23 02:18:00,
2013-01-22 20:33:00,-7.7,-12.0,30.38,SW,216,0.0,1.0,82,0.00,,,0.00,weatherlink.com 1.10,2013-01-23 02:33:00,
2013-01-22 20:48:00,-7.7,-12.0,30.37,SW,216,0.0,0.0,82,0.00,,,0.00,weatherlink.com 1.10,2013-01-23 02:48:00,
2013-01-22 21:03:00,-7.7,-12.0,30.37,SW,216,0.0,0.0,82,0.00,,,0.00,weatherlink.com 1.10,2013-01-23 03:03:00,
2013-01-22 21:18:00,-7.3,-11.0,30.37,SW,216,0.0,1.0,83,0.00,,,0.00,weatherlink.com 1.10,2013-01-23 03:18:00,
2013-01-22 21:33:00,-7.0,-11.0,30.37,SW,215,0.0,1.0,82,0.00,,,0.00,weatherlink.com 1.10,2013-01-23 03:33:00,
2013-01-22 21:48:00,-7.2,-11.0,30.37,SW,217,1.0,2.0,82,0.00,,,0.00,weatherlink.com 1.10,2013-01-23 03:48:00,
2013-01-22 22:18:00,-6.7,-11.0,30.37,SW,217,0.0,3.0,82,0.00,,,0.00,weatherlink.com 1.10,2013-01-23 04:18:00,
2013-01-22 22:33:00,-6.3,-10.0,30.37,SSW,203,0.0,2.0,82,0.00,,,0.00,weatherlink.com 1.10,2013-01-23 04:33:00,
2013-01-22 22:48:00,-5.9,-10.0,30.36,SSW,202,0.0,2.0,82,0.00,,,0.00,weatherlink.com 1.10,2013-01-23 04:48:00,
2013-01-22 23:03:00,-5.9,-10.0,30.36,SSW,202,0.0,1.0,82,0.00,,,0.00,weatherlink.com 1.10,2013-01-23 05:03:00,
2013-01-22 23:18:00,-6.0,-10.0,30.36,SSW,202,0.0,0.0,82,0.00,,,0.00,weatherlink.com 1.10,2013-01-23 05:18:00,
2013-01-22 23:34:00,-6.1,-10.0,30.36,SSW,202,0.0,0.0,83,0.00,,,0.00,weatherlink.com 1.10,2013-01-23 05:34:00,
2013-01-22 23:49:00,-6.4,-11.0,30.36,SSW,202,0.0,0.0,82,0.00,,,0.00,weatherlink.com 1.10,2013-01-23 05:49:00,